Weather Roundup
Issued by NWS

Home | Current Version | Previous Version | Text Only | Print | Product List | Glossary On
Versions: 1 2 3 4 5 6 7 8 9 10 11 12 13 14 15 16 17 18 19 20 21 22 23 24 25 26 27 28 29 30 31 32 33 34 35 36 37 38 39 40 41 42 43 44 45 46 47 48 49 50
942
NZUS93 KARX 262310
HRRWXR

CURRENT HOURLY OBSERVATIONS ACROSS
MUCH OF THE UPPER MISSISSIPPI VALLEY
NATIONAL WEATHER SERVICE LA CROSSE WI
600 PM CDT WED APR 26 2017


...SOUTHEAST MINNESOTA...


CITY           SKY/WX    TMP DP  RH WIND       PRES   REMARKS
ROCHESTER      CLOUDY    39  36  89 NW14      29.53S WCI  31
ROCHESTER/MAYO CLOUDY    39  37  94 W16       29.53S WCI  30
WINONA         CLOUDY    41  37  87 NW9       29.52S
AUSTIN         CLOUDY    39  36  87 NW13      29.54S WCI  32
ALBERT LEA     CLOUDY    39  34  81 NW8G16    29.56R WCI  34
DODGE CENTER   CLOUDY    39  36  87 NW13      29.54R WCI  32
PRESTON        CLOUDY    39  36  87 NW12      29.53S WCI  32
OWATONNA       CLOUDY    39  34  81 W13       29.57R WCI  32
FARIBAULT      CLOUDY    39  36  87 NW7       29.57R WCI  34
$$

...ELSEWHERE IN MINNESOTA...


CITY           SKY/WX    TMP DP  RH WIND       PRES   REMARKS
MINNEAPOLIS    CLOUDY    40  32  73 N10G18    29.55S WCI  33
INTNL FALLS    LGT SNOW  28  21  75 NE13G22   29.72R WCI  17
DULUTH         FOG       32  30  92 N9        29.55F VSB 1   WCI  24
RED WING       CLOUDY    41  36  81 NW6       29.54R
REDWOOD FALLS  CLOUDY    36  31  82 NW15G22   29.60F WCI  27
MANKATO        CLOUDY    38  32  79 NW14      29.59R WCI  30
WORTHINGTON    CLOUDY    34  30  85 NW20      29.63R WCI  23
FAIRMONT       CLOUDY    38  34  85 NW16      29.60R WCI  29
$$

...SOUTHWEST WISCONSIN...


CITY           SKY/WX    TMP DP  RH WIND       PRES   REMARKS
LA CROSSE      CLOUDY    46  40  79 W12       29.50R
PRAIRIE DU CHI CLOUDY    48  42  77 W9        29.51S
BOSCOBEL       CLOUDY    50  44  80 W9        29.50S
LONE ROCK      CLOUDY    52  49  89 W8        29.48S FOG
PLATTEVILLE    CLOUDY    50  50 100 SW10      29.50F
FORT MC COY    CLOUDY    44  42  94 W7        29.50R
CAMP DOUGLAS   CLOUDY    46  45  93 W9        29.48R
MAUSTON-NEW LI CLOUDY    48  46  90 NW7       29.47R FOG
VIROQUA        CLOUDY    44  43  95 W8        29.50R
WIS DELLS      CLOUDY    55  51  86 SW12      29.46S
$$

...ELSEWHERE IN WISCONSIN...


CITY           SKY/WX    TMP DP  RH WIND       PRES   REMARKS
MILWAUKEE      CLOUDY    69  56  62 SW14      29.46S
MADISON        CLOUDY    56  51  84 VRB7      29.45F
GREEN BAY      CLOUDY    66  60  81 S10G20    29.42R
EAU CLAIRE     CLOUDY    40  36  86 NW10      29.51R WCI  33
BLACK RVR FLS  CLOUDY    44  43  95 W9        29.50R
MEDFORD        CLOUDY    40  39  97 NW10      29.45R WCI  34
WAUSAU         CLOUDY    48  46  93 W12       29.42R
WIS RAPIDS     CLOUDY    47  45  93 W7        29.48R
MARSHFIELD     CLOUDY    43  40  89 W12       29.45R
RICE LAKE      CLOUDY    38  34  85 N9        29.54R WCI  31
$$

...NORTHEAST IOWA...


CITY           SKY/WX    TMP DP  RH WIND       PRES   REMARKS
WATERLOO       CLOUDY    45  37  73 NW13G24   29.54R
DUBUQUE        CLOUDY    49  45  86 W9        29.49F
DECORAH        CLOUDY    43  39  87 NW12      29.52R
MASON CITY     CLOUDY    40  36  86 NW18G25   29.57R WCI  31
CHARLES CITY   CLOUDY    43  39  87 NW14      29.55R
OELWEIN        CLOUDY    45  41  87 NW17      29.53R
$$

...ELSEWHERE IN IOWA...


CITY           SKY/WX    TMP DP  RH WIND       PRES   REMARKS
DES MOINES     CLOUDY    47  38  71 NW12      29.58R
IOWA CITY      CLOUDY    51  43  74 W9        29.55R
FORT DODGE     CLOUDY    43  34  70 NW9       29.60S
MARSHALLTOWN   CLOUDY    46  39  76 NW17      29.56R
CEDAR RAPIDS   CLOUDY    49  43  80 NW14      29.53R
$$

...NORTHERN ILLINOIS...


CITY           SKY/WX    TMP DP  RH WIND       PRES   REMARKS
CHICAGO-OHARE  CLOUDY    70  57  63 W10       29.46F
CHICAGO-MIDWAY CLOUDY    73  56  54 W12       29.47F
MOLINE         CLOUDY    52  47  83 W8        29.51F
ROCKFORD       CLOUDY    58  52  80 SW10      29.51S
PEORIA         CLOUDY    56  54  93 N6        29.49F
$$

NOTE: "FAIR" INDICATES FEW OR NO CLOUDS BELOW 12,000 FEET WITH NO
SIGNIFICANT WEATHER AND/OR OBSTRUCTIONS TO VISIBILITY. WIND
SPEEDS ARE IN MILES-PER-HOUR.




USA.gov is the U.S. government's official web portal to all federal, state and local government web resources and services.